Location: Chrome
(40.5765°N, 74.2163°W)
Time: 22:32:59
(UTC+00:00)

COSMOS 2428 - Pass Details

Date: 06 December 2019
Orbit: 844 x 858 km, 70.9° (Epoch: 17 January)

Event Time Altitude Azimuth Distance (km) Brightness Sun altitude
Rises 22:30:26 0° 210° (SSW) 3,387 6.7 -11.3°
Reaches altitude 10° 22:32:53 10° 213° (SSW) 2,457 6.0 -11.7°
Maximum altitude 22:38:29 65° 295° (WNW) 926 3.1 -12.7°
Drops below altitude 10° 22:44:08 10° 18° (NNE) 2,479 4.8 -13.7°
Enters shadow 22:45:33 - 20° (NNE) 3,013 5.2 -14.0°
